FW3204 Weather Reports


time (UTC)temp
F
wind
direction
speed
knots
gust
knots
rain 1hr
in
rain 24hr
in
rain mn
in
humidity
%
barometer
mb
20260507204529 68 136 0.0 3.5 0.00 0.00 0.00 27 1009.9
20260507204028 68 136 0.0 2.6 0.00 0.00 0.00 28 1010.0
20260507203528 68 136 0.9 2.6 0.00 0.00 0.00 25 1010.0
20260507203028 68 137 0.0 4.3 0.00 0.00 0.00 26 1009.9
20260507202528 69 137 0.9 4.3 0.00 0.00 0.00 24 1009.9
20260507202031 70 148 0.0 4.3 0.00 0.00 0.00 24 1009.9
20260507201527 71 198 0.0 2.6 0.00 0.00 0.00 24 1009.9
20260507201027 71 198 0.9 1.7 0.00 0.00 0.00 23 1009.8
20260507200526 71 198 0.0 1.7 0.00 0.00 0.00 22 1009.9
20260507200026 71 198 0.0 1.7 0.00 0.00 0.00 23 1009.9
20260507195529 71 198 0.0 4.3 0.00 0.00 0.00 22 1010.2
20260507195024 70 198 0.9 4.3 0.00 0.00 0.00 24 1010.1
20260507194534 69 213 0.0 2.6 0.00 0.00 0.00 25 1010.2
20260507194023 69 213 0.9 3.5 0.00 0.00 0.00 24 1010.3
20260507193523 69 213 0.0 3.5 0.00 0.00 0.00 25 1010.4
20260507193023 69 215 0.9 3.5 0.00 0.00 0.00 25 1010.4
20260507192521 70 218 1.7 3.5 0.00 0.00 0.00 26 1010.5
20260507192020 70 221 0.0 3.5 0.00 0.00 0.00 25 1010.5
20260507191519 69 221 0.9 3.5 0.00 0.00 0.00 25 1010.5
20260507191021 68 221 0.0 3.5 0.00 0.00 0.00 24 1010.6
20260507190518 68 221 0.9 7.0 0.00 0.00 0.00 24 1010.8
20260507190022 68 221 0.9 7.0 0.00 0.00 0.00 25 1010.9
20260507185520 68 194 1.7 5.2 0.00 0.00 0.00 24 1011.0
20260507185017 69 193 0.9 4.3 0.00 0.00 0.00 24 1010.9
20260507184519 68 219 0.0 2.6 0.00 0.00 0.00 26 1010.9
20260507184015 67 218 0.0 3.5 0.00 0.00 0.00 27 1011.0
20260507183513 67 232 0.0 5.2 0.00 0.00 0.00 25 1011.0
20260507183017 67 228 0.9 3.5 0.00 0.00 0.00 28 1011.0
20260507182512 66 213 0.0 3.5 0.00 0.00 0.00 28 1011.0
20260507182011 66 213 0.9 5.2 0.00 0.00 0.00 26 1011.1
20260507181510 65 229 0.9 5.2 0.00 0.00 0.00 28 1011.1
20260507181010 65 188 0.9 3.5 0.00 0.00 0.00 29 1011.1
20260507180510 64 194 0.0 4.3 0.00 0.00 0.00 28 1011.2
20260507180012 64 194 0.9 3.5 0.00 0.00 0.00 26 1011.3
20260507175509 65 193 0.9 3.5 0.00 0.00 0.00 28 1011.4
20260507175009 64 199 0.0 4.3 0.00 0.00 0.00 28 1011.4
20260507174513 64 204 1.7 7.0 0.00 0.00 0.00 27 1011.7
20260507174006 65 157 1.7 7.0 0.00 0.00 0.00 27 1011.8
20260507173508 64 193 0.0 3.5 0.00 0.00 0.00 29 1011.8
20260507173015 64 193 0.9 4.3 0.00 0.00 0.00 28 1012.0
20260507172505 64 192 0.9 4.3 0.00 0.00 0.00 28 1012.2
20260507172004 64 206 0.9 3.5 0.00 0.00 0.00 27 1012.2
20260507171501 64 199 0.9 7.0 0.00 0.00 0.00 29 1012.3
20260507171102 63 180 1.7 7.0 0.00 0.00 0.00 28 1012.4
20260507170600 63 183 0.9 6.1 0.00 0.00 0.00 29 1012.4
20260507170059 62 163 0.0 6.1 0.00 0.00 0.00 32 1012.5
20260507165557 62 180 1.7 7.0 0.00 0.00 0.00 28 1012.6
20260507165100 62 179 0.9 5.2 0.00 0.00 0.00 30 1012.5
20260507164629 62 229 0.9 6.1 0.00 0.00 0.00 31 1012.5
20260507164057 62 144 1.7 6.1 0.00 0.00 0.00 30 1012.7
20260507163554 61 134 0.0 6.1 0.00 0.00 0.00 30 1012.8
20260507163058 61 208 0.0 1.7 0.00 0.00 0.00 29 1012.8
20260507162554 61 209 0.0 3.5 0.00 0.00 0.00 31 1012.8
20260507162052 60 209 0.9 6.1 0.00 0.00 0.00 30 1013.1
20260507161557 60 202 0.9 9.6 0.00 0.00 0.00 30 1013.1
20260507161054 60 220 0.9 7.0 0.00 0.00 0.00 32 1013.1
20260507160549 59 229 1.7 4.3 0.00 0.00 0.00 35 1013.2
20260507160049 59 176 0.9 7.8 0.00 0.00 0.00 32 1013.4
20260507155547 59 148 1.7 7.8 0.00 0.00 0.00 32 1013.4
20260507155048 59 248 0.0 8.7 0.00 0.00 0.00 33 1013.5
20260507154551 59 175 1.7 8.7 0.00 0.00 0.00 33 1013.5
20260507154046 58 194 0.9 5.2 0.00 0.00 0.00 33 1013.4
20260507153547 58 221 1.7 6.1 0.00 0.00 0.00 33 1013.6
20260507153044 58 167 0.9 5.2 0.00 0.00 0.00 34 1013.6
20260507152545 58 177 0.9 5.2 0.00 0.00 0.00 34 1013.6
20260507152044 57 180 0.9 5.2 0.00 0.00 0.00 36 1013.6
20260507151540 57 171 0.9 7.8 0.00 0.00 0.00 35 1013.6
20260507151042 56 205 0.9 7.8 0.00 0.00 0.00 38 1013.7
20260507150538 56 217 0.9 7.0 0.00 0.00 0.00 38 1013.9
20260507150043 56 219 1.7 5.2 0.00 0.00 0.00 37 1013.7
20260507145537 56 236 1.7 6.1 0.00 0.01 0.00 38 1013.9
20260507145037 55 177 1.7 6.1 0.00 0.01 0.00 38 1014.0
20260507144539 55 196 0.9 4.3 0.00 0.01 0.00 39 1014.1
20260507144036 55 200 0.9 2.6 0.00 0.01 0.00 42 1014.1
20260507143534 54 200 0.0 5.2 0.00 0.01 0.00 41 1014.1
20260507143039 54 200 0.9 5.2 0.00 0.01 0.00 41 1014.4
20260507142532 54 197 0.0 4.3 0.00 0.01 0.00 41 1014.3
20260507142033 54 190 0.0 5.2 0.00 0.01 0.00 43 1014.3
20260507141533 53 185 0.0 5.2 0.00 0.01 0.00 43 1014.3
20260507141031 53 196 0.9 4.3 0.00 0.01 0.00 43 1014.4
20260507140530 53 193 0.9 4.3 0.00 0.01 0.00 43 1014.5
20260507140029 53 202 0.9 4.3 0.00 0.01 0.00 44 1014.6
20260507135528 52 199 0.0 3.5 0.00 0.03 0.00 45 1014.9
20260507135028 52 199 0.0 3.5 0.00 0.03 0.00 44 1014.9
20260507134528 52 199 0.0 4.3 0.00 0.03 0.00 45 1014.9
20260507134027 52 198 0.0 3.5 0.00 0.03 0.00 45 1015.0
20260507133530 52 197 0.9 4.3 0.00 0.03 0.00 45 1014.8
20260507133029 52 196 0.0 4.3 0.00 0.03 0.00 45 1014.9
20260507132527 51 196 0.9 4.3 0.00 0.03 0.00 45 1014.8
20260507132026 51 200 0.9 3.5 0.00 0.03 0.00 45 1015.0
20260507131525 51 201 0.9 3.5 0.00 0.03 0.00 45 1015.0
20260507131026 51 218 0.0 3.5 0.00 0.03 0.00 45 1015.0
20260507130525 51 217 0.9 3.5 0.00 0.03 0.00 45 1014.9
20260507130028 51 217 0.0 4.3 0.00 0.03 0.00 45 1015.0
20260507125527 51 221 0.0 4.3 0.00 0.11 0.00 45 1015.1
20260507125024 51 225 0.0 4.3 0.00 0.11 0.00 46 1015.0
20260507124533 50 225 0.0 4.3 0.00 0.11 0.00 46 1015.1
20260507124027 50 217 0.0 4.3 0.00 0.11 0.00 47 1015.0
20260507123522 50 217 0.9 3.5 0.00 0.11 0.00 48 1014.9
20260507123022 50 217 0.9 3.5 0.00 0.11 0.00 47 1014.8
20260507122519 50 215 0.9 2.6 0.00 0.11 0.00 48 1014.9
20260507122018 50 217 0.0 2.6 0.00 0.11 0.00 48 1014.8
20260507121517 50 217 0.0 2.6 0.00 0.11 0.00 50 1014.9
20260507121017 49 217 0.9 2.6 0.00 0.11 0.00 49 1014.7
20260507120521 49 218 0.0 5.2 0.00 0.11 0.00 49 1014.8
20260507120015 49 218 0.9 5.2 0.00 0.11 0.00 51 1014.6
20260507115515 49 202 0.9 4.3 0.00 0.16 0.00 49 1014.5
20260507115017 49 185 0.9 4.3 0.00 0.16 0.00 50 1014.5
20260507114512 49 192 0.9 3.5 0.00 0.16 0.00 52 1014.5
20260507114016 49 193 0.0 2.6 0.00 0.16 0.00 52 1014.5
20260507113510 49 192 0.0 3.5 0.00 0.16 0.00 51 1014.3
20260507113032 49 193 0.9 3.5 0.00 0.16 0.00 51 1014.4
20260507112511 49 194 0.9 2.6 0.00 0.16 0.00 52 1014.2
20260507112011 49 194 0.9 5.2 0.00 0.16 0.00 52 1014.0
20260507111509 49 196 1.7 5.2 0.00 0.16 0.00 51 1014.3
20260507111008 49 196 0.9 3.5 0.00 0.16 0.00 51 1014.3
20260507110508 49 196 0.0 4.3 0.00 0.16 0.00 53 1014.1
20260507110011 49 196 0.9 4.3 0.00 0.16 0.00 51 1014.2
20260507105506 49 199 0.9 3.5 0.00 0.16 0.00 51 1014.2
20260507105005 49 196 0.9 4.3 0.00 0.16 0.00 52 1014.1
20260507104505 49 196 0.9 4.3 0.00 0.16 0.00 52 1014.1
20260507104007 49 175 0.9 3.5 0.00 0.16 0.00 52 1014.1
20260507103505 49 169 0.9 5.2 0.00 0.16 0.00 53 1014.0
20260507103001 49 208 0.0 3.5 0.00 0.16 0.00 54 1013.9
20260507102600 49 209 0.9 4.3 0.00 0.16 0.00 52 1013.8
20260507102059 50 215 0.9 4.3 0.00 0.16 0.00 52 1013.9
20260507101559 50 155 0.0 4.3 0.00 0.16 0.00 53 1013.7
20260507101058 50 155 0.9 5.2 0.00 0.16 0.00 52 1013.5
20260507100601 50 153 0.9 6.1 0.00 0.16 0.00 52 1013.5
20260507100110 50 148 0.9 6.1 0.00 0.16 0.00 52 1013.4
20260507095558 50 152 1.7 6.1 0.00 0.16 0.00 52 1013.4
20260507095055 50 192 1.7 5.2 0.00 0.16 0.00 52 1013.2
20260507094604 50 178 0.9 6.1 0.00 0.16 0.00 52 1013.2
20260507094055 50 192 2.6 6.1 0.00 0.16 0.00 51 1013.1
20260507093555 50 178 0.9 7.0 0.00 0.16 0.00 52 1013.1
20260507093055 50 172 0.9 7.0 0.00 0.16 0.00 53 1013.1
20260507092554 50 155 2.6 8.7 0.00 0.16 0.00 53 1013.1
20260507092056 50 195 0.9 8.7 0.00 0.16 0.00 53 1013.1
20260507091615 50 167 2.6 6.1 0.00 0.16 0.00 53 1013.2
20260507091052 50 225 2.6 6.1 0.00 0.16 0.00 53 1013.1
20260507090551 50 208 1.7 7.8 0.00 0.16 0.00 54 1013.1
20260507090051 50 152 1.7 7.8 0.00 0.16 0.00 52 1013.2
20260507085550 50 158 1.7 7.0 0.00 0.16 0.00 53 1013.3
20260507085050 50 183 2.6 7.8 0.00 0.16 0.00 53 1013.2
20260507084603 51 204 1.7 7.0 0.00 0.16 0.00 54 1013.2
20260507084049 51 198 1.7 6.1 0.00 0.16 0.00 54 1013.3
20260507083555 51 180 1.7 5.2 0.00 0.16 0.00 55 1013.3
20260507083049 51 198 1.7 3.5 0.00 0.16 0.00 55 1013.3
20260507082548 51 185 0.9 4.3 0.00 0.16 0.00 55 1013.2
20260507082048 51 185 0.9 4.3 0.00 0.16 0.00 54 1013.3
20260507081553 51 184 1.7 7.0 0.00 0.16 0.00 55 1013.3
20260507081048 51 207 1.7 7.0 0.00 0.16 0.00 55 1013.1
20260507080545 51 172 2.6 7.8 0.00 0.16 0.00 55 1013.1
20260507080046 51 167 2.6 7.8 0.00 0.16 0.00 55 1012.8
20260507075544 51 192 2.6 6.1 0.00 0.16 0.00 55 1012.5
20260507075045 51 158 1.7 6.1 0.00 0.16 0.00 55 1012.5
20260507074549 51 207 1.7 6.1 0.00 0.16 0.00 55 1012.4
20260507074048 51 213 1.7 7.8 0.00 0.16 0.00 56 1012.5
20260507073543 51 169 2.6 7.8 0.00 0.16 0.00 56 1012.5
20260507073043 51 197 0.9 9.6 0.00 0.16 0.00 57 1012.5
20260507072543 51 161 1.7 9.6 0.00 0.16 0.00 58 1012.4
20260507072044 51 165 1.7 6.1 0.00 0.16 0.00 57 1012.4
20260507071540 51 171 0.9 4.3 0.00 0.16 0.00 57 1012.5
20260507071040 51 172 1.7 6.1 0.00 0.16 0.00 58 1012.2
20260507070540 51 163 2.6 6.1 0.00 0.16 0.00 57 1012.3
20260507070043 51 216 1.7 8.7 0.00 0.16 0.00 58 1012.3
20260507065540 51 163 3.5 8.7 0.00 0.16 0.00 57 1012.4
20260507065038 51 140 1.7 7.8 0.00 0.16 0.00 57 1012.2
20260507064539 51 173 2.6 7.8 0.00 0.16 0.00 57 1012.3
20260507064040 51 159 2.6 7.0 0.00 0.16 0.00 58 1012.3
20260507063537 51 175 2.6 7.0 0.00 0.16 0.00 58 1012.3
20260507063041 51 167 2.6 7.8 0.00 0.16 0.00 58 1012.6
20260507062535 51 159 2.6 7.0 0.00 0.16 0.00 57 1012.6
20260507062035 51 164 2.6 7.0 0.00 0.16 0.00 58 1012.7
20260507061537 52 190 1.7 8.7 0.00 0.16 0.00 58 1012.5
20260507061032 52 173 2.6 5.2 0.00 0.16 0.00 59 1012.8
20260507060531 52 174 1.7 6.1 0.00 0.16 0.00 59 1012.9
20260507060030 52 181 1.7 7.0 0.00 0.16 0.00 58 1012.7
20260507055530 52 176 1.7 7.0 0.00 0.16 0.00 58 1012.7
20260507055029 52 144 1.7 6.1 0.00 0.16 0.00 57 1012.8
20260507054529 52 210 1.7 6.1 0.00 0.16 0.00 57 1012.9
20260507054029 52 185 1.7 7.0 0.00 0.16 0.00 57 1012.7
20260507053528 52 163 0.9 7.0 0.00 0.16 0.00 58 1012.7
20260507053028 52 169 1.7 7.0 0.00 0.16 0.00 58 1012.7
20260507052527 52 222 1.7 7.0 0.00 0.16 0.00 58 1012.6
20260507052027 53 221 0.9 7.0 0.00 0.16 0.00 58 1012.6
20260507051527 53 180 0.9 7.0 0.00 0.16 0.00 58 1012.7
20260507051027 53 164 1.7 7.0 0.00 0.16 0.00 58 1012.6
20260507050525 53 175 2.6 5.2 0.00 0.16 0.00 58 1012.7
20260507050029 53 167 1.7 5.2 0.00 0.16 0.00 58 1012.8
20260507045529 53 183 2.6 7.8 0.00 0.16 0.00 58 1012.7
20260507045024 53 153 3.5 7.8 0.00 0.16 0.00 58 1012.9
20260507044523 53 213 0.9 5.2 0.00 0.16 0.00 59 1012.9
20260507044023 53 232 1.7 5.2 0.00 0.16 0.00 58 1013.0
20260507043522 53 187 0.9 4.3 0.00 0.16 0.00 58 1012.5
20260507043026 53 198 0.9 7.0 0.00 0.16 0.00 58 1012.1
20260507042522 53 164 0.9 7.0 0.00 0.16 0.00 58 1012.2
20260507042024 53 188 1.7 10.4 0.00 0.16 0.00 59 1012.6
20260507041520 53 194 2.6 10.4 0.00 0.16 0.00 59 1012.5
20260507041019 53 173 2.6 8.7 0.00 0.16 0.00 59 1012.8
20260507040518 53 172 2.6 8.7 0.00 0.16 0.00 59 1012.6
20260507040016 54 198 0.9 5.2 0.00 0.16 0.00 59 1012.3
20260507035517 54 160 1.7 7.0 0.00 0.16 0.16 59 1012.0
20260507035015 54 215 1.7 7.0 0.00 0.16 0.16 59 1012.2
20260507034521 54 173 2.6 7.0 0.00 0.16 0.16 59 1012.5
20260507034015 55 139 3.5 9.6 0.00 0.16 0.16 59 1012.6
20260507033512 55 205 3.5 9.6 0.00 0.16 0.16 59 1012.5
20260507033014 55 145 1.7 8.7 0.00 0.16 0.16 58 1012.2
20260507032512 55 173 2.6 7.8 0.00 0.16 0.16 58 1012.2
20260507032010 55 186 2.6 7.0 0.00 0.16 0.16 57 1011.8
20260507031507 56 173 1.7 6.1 0.00 0.16 0.16 57 1011.9
20260507031006 56 198 2.6 8.7 0.00 0.16 0.16 56 1012.1
20260507030506 56 222 2.6 8.7 0.00 0.16 0.16 57 1012.2
20260507030007 56 184 3.5 7.8 0.00 0.16 0.16 57 1012.0
20260507025505 56 155 1.7 7.8 0.00 0.16 0.16 58 1012.3
20260507025003 57 198 3.5 11.3 0.00 0.16 0.16 57 1012.2
20260507024502 57 176 1.7 6.1 0.00 0.16 0.16 58 1012.2
20260507024002 57 169 2.6 7.8 0.00 0.16 0.16 58 1012.1
20260507023501 57 159 2.6 7.8 0.00 0.16 0.16 57 1011.9
20260507023001 57 195 2.6 7.0 0.00 0.16 0.16 57 1011.8
20260507022601 57 186 1.7 4.3 0.00 0.16 0.16 57 1011.8
20260507022101 57 194 0.9 4.3 0.00 0.16 0.16 57 1011.7
20260507021600 57 186 1.7 4.3 0.00 0.16 0.16 57 1011.8
20260507021059 57 189 1.7 6.1 0.00 0.16 0.16 57 1011.7
20260507020600 57 182 1.7 6.1 0.00 0.16 0.16 57 1011.8
20260507020104 58 193 1.7 5.2 0.00 0.16 0.16 57 1011.5
20260507015559 58 184 2.6 5.2 0.00 0.16 0.16 57 1011.6
20260507015058 58 200 0.9 5.2 0.00 0.16 0.16 58 1011.7
20260507014602 58 182 1.7 5.2 0.00 0.16 0.16 57 1011.8
20260507014058 58 174 2.6 6.1 0.00 0.16 0.16 57 1011.8
20260507013600 58 207 2.6 6.1 0.00 0.16 0.16 57 1011.8
20260507013057 58 173 2.6 6.1 0.00 0.16 0.16 57 1011.7
20260507012556 58 169 2.6 7.0 0.00 0.16 0.16 57 1011.7
20260507012056 58 178 0.0 5.2 0.00 0.16 0.16 59 1011.7
20260507011555 58 178 1.7 5.2 0.00 0.16 0.16 58 1011.7
20260507011054 58 162 2.6 6.1 0.00 0.16 0.16 57 1011.5
20260507010554 58 142 1.7 7.0 0.00 0.16 0.16 58 1011.3
20260507010054 58 180 2.6 7.8 0.00 0.16 0.16 58 1011.7
20260507005553 59 200 1.7 7.0 0.00 0.16 0.16 59 1011.9
20260507005054 59 179 2.6 7.0 0.00 0.16 0.16 59 1011.8
20260507004551 59 164 1.7 8.7 0.00 0.16 0.16 59 1011.9
20260507004051 59 173 2.6 9.6 0.00 0.16 0.16 59 1011.8
20260507003551 59 174 0.9 5.2 0.00 0.16 0.16 61 1011.8
20260507003105 59 178 1.7 4.3 0.00 0.16 0.16 61 1011.6
20260507002551 60 161 1.7 7.8 0.00 0.16 0.16 60 1011.8
20260507002051 60 166 2.6 7.8 0.00 0.16 0.16 60 1011.8
20260507001611 60 174 0.9 5.2 0.00 0.16 0.16 60 1011.7
20260507001049 61 172 1.7 7.8 0.00 0.16 0.16 59 1011.8
20260507000552 61 147 2.6 7.8 0.00 0.16 0.16 58 1011.8
20260507000048 61 200 1.7 4.3 0.00 0.16 0.16 59 1011.5
20260506235551 61 202 0.9 4.3 0.00 0.16 0.16 59 1011.1
20260506235047 62 210 0.9 4.3 0.00 0.16 0.16 60 1011.3
20260506234553 62 200 1.7 4.3 0.00 0.16 0.16 59 1011.4
20260506234051 62 207 0.9 4.3 0.00 0.16 0.16 59 1011.3
20260506233548 62 229 1.7 4.3 0.00 0.16 0.16 59 1011.2
20260506233049 62 205 0.9 3.5 0.00 0.16 0.16 60 1011.0
20260506232547 62 205 0.9 3.5 0.00 0.16 0.16 59 1011.0
20260506232047 63 214 0.9 3.5 0.00 0.16 0.16 60 1010.8
20260506231554 63 207 0.0 3.5 0.00 0.16 0.16 60 1010.6
20260506231046 63 205 0.9 3.5 0.00 0.16 0.16 59 1010.7
20260506230546 63 207 0.0 3.5 0.00 0.16 0.16 59 1010.9
20260506230055 64 209 0.0 0.0 0.00 0.16 0.16 59 1010.6
20260506225550 64 209 0.0 3.5 0.00 0.16 0.16 59 1010.5
20260506225046 64 209 0.0 4.3 0.00 0.16 0.16 58 1010.4
20260506224546 65 213 0.0 7.8 0.00 0.16 0.16 58 1010.5
20260506224045 65 205 0.0 7.8 0.00 0.16 0.16 60 1010.2
20260506223548 65 5 0.0 0.0 0.00 0.16 0.16 59 1010.2
20260506223045 65 5 0.0 0.0 0.00 0.16 0.16 60 1010.2
20260506222546 65 5 0.0 0.0 0.00 0.16 0.16 59 1010.2
20260506222046 65 5 0.0 0.0 0.00 0.16 0.16 59 1010.0
20260506221602 65 5 0.0 0.0 0.00 0.16 0.16 59 1010.1
20260506221047 65 5 0.0 0.0 0.00 0.16 0.16 59 1010.1
20260506220544 65 5 0.0 0.0 0.00 0.16 0.16 60 1010.0
20260506220044 65 5 0.0 0.0 0.00 0.16 0.16 60 1009.9
20260506215544 65 5 0.0 0.0 0.00 0.16 0.16 59 1009.7
20260506215044 65 5 0.0 0.0 0.00 0.16 0.16 60 1009.8
20260506214544 65 5 0.0 0.0 0.00 0.16 0.16 61 1009.7
20260506214044 65 5 0.0 0.0 0.00 0.16 0.16 60 1009.8
20260506213543 65 5 0.0 0.0 0.00 0.16 0.16 61 1009.7
20260506213047 65 5 0.0 0.9 0.00 0.16 0.16 61 1009.7
20260506212543 65 5 0.0 2.6 0.00 0.16 0.16 61 1009.8
20260506212043 65 5 0.0 2.6 0.00 0.16 0.16 60 1009.8
20260506211543 65 5 0.0 2.6 0.00 0.16 0.16 60 1009.7
20260506211043 65 5 0.0 1.7 0.00 0.16 0.16 60 1009.6
20260506210543 65 5 0.0 2.6 0.00 0.16 0.16 60 1009.4
20260506210053 65 5 0.0 2.6 0.00 0.16 0.16 59 1009.3
20260506205546 65 5 0.0 2.6 0.00 0.16 0.16 59 1009.2
20260506205042 65 5 0.0 2.6 0.00 0.16 0.16 59 1009.3